Location: Boulder, CO
(40.0083°N, 105.2472°W)
Time: 09:11:52
(UTC-06:00)

SORCE - Visible Passes

Search period start: 27 August 2016 00:00
Search period end: 06 September 2016 00:00
Orbit: 587 x 619 km, 40.0° (Epoch: 27 August)

Date Brightness Start Highest point End Pass type
(mag) Time Alt. Az. Time Alt. Az. Time Alt. Az.
27 Aug 6.8 21:22:25 10° W 21:26:39 38° SSW 21:27:38 34° S visible
28 Aug 7.5 21:33:56 10° W 21:37:39 25° SSW 21:38:10 24° SSW visible
29 Aug 6.6 20:02:52 10° W 20:07:15 50° SSW 20:11:40 10° SE visible
29 Aug 8.2 21:45:54 10° WSW 21:48:35 15° SW 21:48:45 15° SSW visible
30 Aug 7.2 20:14:13 10° W 20:18:20 34° SSW 20:22:26 10° SE visible
31 Aug 7.9 20:25:48 10° W 20:29:19 22° SSW 20:32:50 10° SSE visible
01 Sep 8.5 20:38:00 10° WSW 20:40:13 13° SW 20:42:26 10° S visible
